Year,Month,Day,Hour,Minute,Value (Times are PST for windspeed in km/hr)
2012,03,12,00,00,8.60
2012,03,12,00,01,9.10
2012,03,12,00,02,14.60
2012,03,12,00,03,8.40
2012,03,12,00,04,10.70
2012,03,12,00,05,10.10
2012,03,12,00,06,7.50
2012,03,12,00,07,7.80
2012,03,12,00,08,7.60
2012,03,12,00,09,16.90
2012,03,12,00,10,7.60
2012,03,12,00,11,8.00
2012,03,12,00,12,10.80
2012,03,12,00,13,4.80
2012,03,12,00,14,5.60
2012,03,12,00,15,5.30
2012,03,12,00,16,5.90
2012,03,12,00,17,8.30
2012,03,12,00,18,9.90
2012,03,12,00,19,5.10
2012,03,12,00,20,14.50
2012,03,12,00,21,14.90
2012,03,12,00,22,10.90
2012,03,12,00,23,5.80
2012,03,12,00,24,5.60
2012,03,12,00,25,4.20
2012,03,12,00,26,4.00
2012,03,12,00,27,3.10
2012,03,12,00,28,6.20
2012,03,12,00,29,9.20
2012,03,12,00,30,8.90
2012,03,12,00,31,7.00
2012,03,12,00,32,3.90
2012,03,12,00,33,7.40
2012,03,12,00,34,8.30
2012,03,12,00,35,6.80
2012,03,12,00,36,4.30
2012,03,12,00,37,5.80
2012,03,12,00,38,6.00
2012,03,12,00,39,2.70
2012,03,12,00,40,5.30
2012,03,12,00,41,3.50
2012,03,12,00,42,4.30
2012,03,12,00,43,6.60
2012,03,12,00,44,4.40
2012,03,12,00,45,1.30
2012,03,12,00,46,3.90
2012,03,12,00,47,1.40
2012,03,12,00,48,0.70
2012,03,12,00,49,2.50
2012,03,12,00,50,4.20
2012,03,12,00,51,3.10
2012,03,12,00,52,8.60
2012,03,12,00,53,7.90
2012,03,12,00,54,3.90
2012,03,12,00,55,3.80
2012,03,12,00,56,6.40
2012,03,12,00,57,5.00
2012,03,12,00,58,5.90
2012,03,12,00,59,6.20
2012,03,12,01,00,1.10
2012,03,12,01,01,1.50
2012,03,12,01,02,3.30
2012,03,12,01,03,3.50
2012,03,12,01,04,4.60
2012,03,12,01,05,3.00
2012,03,12,01,06,4.80
2012,03,12,01,07,3.00
2012,03,12,01,08,5.40
2012,03,12,01,09,6.40
2012,03,12,01,10,7.70
2012,03,12,01,11,7.20
2012,03,12,01,12,6.90
2012,03,12,01,13,3.50
2012,03,12,01,14,4.10
2012,03,12,01,15,7.60
2012,03,12,01,16,5.40
2012,03,12,01,17,6.70
2012,03,12,01,18,4.20
2012,03,12,01,19,2.90
2012,03,12,01,20,5.20
2012,03,12,01,21,1.30
2012,03,12,01,22,4.30
2012,03,12,01,23,4.40
2012,03,12,01,24,7.70
2012,03,12,01,25,3.90
2012,03,12,01,26,4.90
2012,03,12,01,27,3.90
2012,03,12,01,28,4.20
2012,03,12,01,29,5.50
2012,03,12,01,30,0.90
2012,03,12,01,31,7.60
2012,03,12,01,32,3.80
2012,03,12,01,33,6.00
2012,03,12,01,34,6.00
2012,03,12,01,35,4.60
2012,03,12,01,36,4.80
2012,03,12,01,37,5.70
2012,03,12,01,38,3.50
2012,03,12,01,39,0.20
2012,03,12,01,40,1.90
2012,03,12,01,41,2.40
2012,03,12,01,42,4.30
2012,03,12,01,43,3.80
2012,03,12,01,44,6.00
2012,03,12,01,45,5.30
2012,03,12,01,46,2.70
2012,03,12,01,47,3.60
2012,03,12,01,48,4.40
2012,03,12,01,49,6.80
2012,03,12,01,50,7.90
2012,03,12,01,51,9.90
2012,03,12,01,52,6.40
2012,03,12,01,53,7.90
2012,03,12,01,54,5.20
2012,03,12,01,55,4.30
2012,03,12,01,56,4.00
2012,03,12,01,57,6.60
2012,03,12,01,58,4.00
2012,03,12,01,59,3.10
2012,03,12,02,00,4.30
2012,03,12,02,01,6.40
2012,03,12,02,02,3.10
2012,03,12,02,03,3.60
2012,03,12,02,04,5.50
2012,03,12,02,05,7.50
2012,03,12,02,06,2.30
2012,03,12,02,07,2.80
2012,03,12,02,08,3.10
2012,03,12,02,09,1.90
2012,03,12,02,10,0.90
2012,03,12,02,11,5.60
2012,03,12,02,12,3.90
2012,03,12,02,13,6.80
2012,03,12,02,14,5.20
2012,03,12,02,15,4.70
2012,03,12,02,16,8.50
2012,03,12,02,17,3.90
2012,03,12,02,18,4.30
2012,03,12,02,19,4.00
2012,03,12,02,20,5.80
2012,03,12,02,21,7.20
2012,03,12,02,22,10.00
2012,03,12,02,23,8.50
2012,03,12,02,24,10.90
2012,03,12,02,25,8.90
2012,03,12,02,26,4.90
2012,03,12,02,27,5.30
2012,03,12,02,28,5.40
2012,03,12,02,29,9.70
2012,03,12,02,30,5.30
2012,03,12,02,31,13.20
2012,03,12,02,32,8.10
2012,03,12,02,33,4.90
2012,03,12,02,34,4.50
2012,03,12,02,35,6.40
2012,03,12,02,36,10.30
2012,03,12,02,37,6.10
2012,03,12,02,38,9.30
2012,03,12,02,39,6.70
2012,03,12,02,40,6.70
2012,03,12,02,41,6.90
2012,03,12,02,42,4.20
2012,03,12,02,43,6.60
2012,03,12,02,44,6.40
2012,03,12,02,45,6.00
2012,03,12,02,46,5.90
2012,03,12,02,47,8.60
2012,03,12,02,48,4.10
2012,03,12,02,49,9.00
2012,03,12,02,50,4.60
2012,03,12,02,51,8.50
2012,03,12,02,52,14.80
2012,03,12,02,53,12.30
2012,03,12,02,54,8.70
2012,03,12,02,55,12.40
2012,03,12,02,56,6.60
2012,03,12,02,57,13.00
2012,03,12,02,58,6.80
2012,03,12,02,59,8.10
2012,03,12,03,00,9.30
2012,03,12,03,01,11.90
2012,03,12,03,02,9.00
2012,03,12,03,03,8.10
2012,03,12,03,04,7.50
2012,03,12,03,05,6.40
2012,03,12,03,06,5.90
2012,03,12,03,07,6.90
2012,03,12,03,08,3.90
2012,03,12,03,09,5.90
2012,03,12,03,10,7.90
2012,03,12,03,11,10.10
2012,03,12,03,12,8.60
2012,03,12,03,13,6.80
2012,03,12,03,14,6.20
2012,03,12,03,15,10.20
2012,03,12,03,16,15.30
2012,03,12,03,17,5.20
2012,03,12,03,18,6.50
2012,03,12,03,19,12.00
2012,03,12,03,20,9.10
2012,03,12,03,21,8.30
2012,03,12,03,22,9.80
2012,03,12,03,23,8.00
2012,03,12,03,24,5.30
2012,03,12,03,25,11.30
2012,03,12,03,26,4.20
2012,03,12,03,27,8.80
2012,03,12,03,28,6.90
2012,03,12,03,29,6.30
2012,03,12,03,30,5.10
2012,03,12,03,31,5.40
2012,03,12,03,32,9.60
2012,03,12,03,33,10.30
2012,03,12,03,34,8.00
2012,03,12,03,35,8.90
2012,03,12,03,36,8.20
2012,03,12,03,37,7.10
2012,03,12,03,38,7.30
2012,03,12,03,39,8.10
2012,03,12,03,40,7.60
2012,03,12,03,41,12.00
2012,03,12,03,42,5.90
2012,03,12,03,43,7.90
2012,03,12,03,44,8.00
2012,03,12,03,45,5.80
2012,03,12,03,49,7.60
2012,03,12,03,50,6.60
2012,03,12,03,51,3.10
2012,03,12,03,52,7.00
2012,03,12,03,53,6.60
2012,03,12,03,54,5.30
2012,03,12,03,55,5.20
2012,03,12,03,56,5.60
2012,03,12,03,57,16.90
2012,03,12,03,58,12.60
2012,03,12,03,59,4.60
2012,03,12,04,00,4.60
2012,03,12,04,01,5.40
2012,03,12,04,02,2.70
2012,03,12,04,03,5.90
2012,03,12,04,04,7.20
2012,03,12,04,05,9.40
2012,03,12,04,06,7.00
2012,03,12,04,07,12.60
2012,03,12,04,08,12.60
2012,03,12,04,09,9.50
2012,03,12,04,10,12.10
2012,03,12,04,11,6.40
2012,03,12,04,12,8.10
2012,03,12,04,13,13.00
2012,03,12,04,14,16.40
2012,03,12,04,15,13.50
2012,03,12,04,16,7.40
2012,03,12,04,17,9.20
2012,03,12,04,18,12.90
2012,03,12,04,19,13.40
2012,03,12,04,20,13.40
2012,03,12,04,21,13.80
2012,03,12,04,22,13.60
2012,03,12,04,23,5.40
2012,03,12,04,24,11.70
2012,03,12,04,25,15.30
2012,03,12,04,26,7.30
2012,03,12,04,27,16.30
2012,03,12,04,28,21.70
2012,03,12,04,29,17.80
2012,03,12,04,30,15.40
2012,03,12,04,31,18.10
2012,03,12,04,32,16.30
2012,03,12,04,33,12.30
2012,03,12,04,34,6.80
2012,03,12,04,35,13.50
2012,03,12,04,36,11.00
2012,03,12,04,37,16.50
2012,03,12,04,38,14.60
2012,03,12,04,39,9.20
2012,03,12,04,40,14.20
2012,03,12,04,41,8.20
2012,03,12,04,42,7.80
2012,03,12,04,43,12.70
2012,03,12,04,44,20.40
2012,03,12,04,45,12.40
2012,03,12,04,46,17.20
2012,03,12,04,47,16.90
2012,03,12,04,48,11.70
2012,03,12,04,49,21.40
2012,03,12,04,50,20.10
2012,03,12,04,51,11.50
2012,03,12,04,52,8.90
2012,03,12,04,53,10.90
2012,03,12,04,54,14.00
2012,03,12,04,55,9.90
2012,03,12,04,56,21.20
2012,03,12,04,57,13.00
2012,03,12,04,58,11.00
2012,03,12,04,59,7.00
2012,03,12,05,00,8.60
2012,03,12,05,01,7.60
2012,03,12,05,02,11.80
2012,03,12,05,03,17.20
2012,03,12,05,04,15.10
2012,03,12,05,05,17.70
2012,03,12,05,06,14.20
2012,03,12,05,07,10.70
2012,03,12,05,08,14.70
2012,03,12,05,09,13.80
2012,03,12,05,10,18.90
2012,03,12,05,11,11.80
2012,03,12,05,12,13.00
2012,03,12,05,13,17.30
2012,03,12,05,14,16.40
2012,03,12,05,15,15.70
2012,03,12,05,16,12.60
2012,03,12,05,17,10.90
2012,03,12,05,18,19.60
2012,03,12,05,19,9.60
2012,03,12,05,20,15.50
2012,03,12,05,21,13.70
2012,03,12,05,22,9.70
2012,03,12,05,23,7.70
2012,03,12,05,24,8.50
2012,03,12,05,25,9.30
2012,03,12,05,26,15.40
2012,03,12,05,27,13.40
2012,03,12,05,28,10.40
2012,03,12,05,29,15.30
2012,03,12,05,30,14.90
2012,03,12,05,31,18.40
2012,03,12,05,32,13.90
2012,03,12,05,33,18.00
2012,03,12,05,34,18.20
2012,03,12,05,35,14.80
2012,03,12,05,36,17.20
2012,03,12,05,37,15.90
2012,03,12,05,38,18.00
2012,03,12,05,39,17.10
2012,03,12,05,40,12.60
2012,03,12,05,41,18.00
2012,03,12,05,42,14.20
2012,03,12,05,43,15.30
2012,03,12,05,44,20.00
2012,03,12,05,45,20.40
2012,03,12,05,46,24.00
2012,03,12,05,47,17.40
2012,03,12,05,48,13.70
2012,03,12,05,49,14.40
2012,03,12,05,50,11.60
2012,03,12,05,51,15.30
2012,03,12,05,52,16.90
2012,03,12,05,53,22.40
2012,03,12,05,54,20.60
2012,03,12,05,55,21.20
2012,03,12,05,56,21.40
2012,03,12,05,57,23.70
2012,03,12,05,58,18.90
2012,03,12,05,59,20.60
2012,03,12,06,00,21.40
2012,03,12,06,01,20.40
2012,03,12,06,02,24.30
2012,03,12,06,03,19.90
2012,03,12,06,04,18.80
2012,03,12,06,05,13.10
2012,03,12,06,06,24.30
2012,03,12,06,07,16.10
2012,03,12,06,08,16.80
2012,03,12,06,09,13.20
2012,03,12,08,04,23.30
2012,03,12,08,05,16.60
2012,03,12,08,06,28.00
2012,03,12,08,07,26.60
2012,03,12,08,08,18.40
2012,03,12,08,09,16.30
2012,03,12,08,10,23.30
2012,03,12,08,11,29.80
2012,03,12,08,12,25.10
2012,03,12,08,13,14.70
2012,03,12,08,14,23.90
2012,03,12,08,15,26.00
2012,03,12,08,16,20.40
2012,03,12,08,17,14.80
2012,03,12,08,18,15.80
2012,03,12,08,19,16.70
2012,03,12,08,20,15.80
2012,03,12,08,21,13.00
2012,03,12,08,22,22.30
2012,03,12,08,23,24.50
2012,03,12,08,24,26.40
2012,03,12,08,25,27.70
2012,03,12,08,26,24.90
2012,03,12,08,27,15.50
2012,03,12,08,28,14.90
2012,03,12,08,29,22.00
2012,03,12,08,30,14.60
2012,03,12,08,31,16.30
2012,03,12,08,32,21.00
2012,03,12,08,33,21.60
2012,03,12,08,34,18.00
2012,03,12,08,35,13.40
2012,03,12,08,36,23.00
2012,03,12,08,37,17.60
2012,03,12,08,38,22.00
2012,03,12,08,39,21.90
2012,03,12,08,40,25.80
2012,03,12,08,41,17.50
2012,03,12,08,42,21.60
2012,03,12,08,43,22.60
2012,03,12,08,44,17.00
2012,03,12,08,45,16.50
2012,03,12,08,46,19.30
2012,03,12,08,47,15.00
2012,03,12,08,48,18.80
2012,03,12,08,49,15.30
2012,03,12,08,50,25.30
2012,03,12,08,51,27.50
2012,03,12,08,52,20.20
2012,03,12,08,53,17.00
2012,03,12,08,54,32.40
2012,03,12,08,55,24.10
2012,03,12,08,56,20.80
2012,03,12,08,57,24.60
2012,03,12,08,58,15.00
2012,03,12,08,59,18.20
2012,03,12,09,00,16.60
2012,03,12,09,01,23.20
2012,03,12,09,02,22.20
2012,03,12,09,03,27.20
2012,03,12,09,04,21.10
2012,03,12,09,05,25.30
2012,03,12,09,06,19.10
2012,03,12,09,07,23.40
2012,03,12,09,08,17.60
2012,03,12,09,09,16.00
2012,03,12,09,10,26.80
2012,03,12,09,11,20.70
2012,03,12,09,12,13.90
2012,03,12,09,13,23.20
2012,03,12,09,14,24.50
2012,03,12,09,15,27.50
2012,03,12,09,16,42.40
2012,03,12,09,17,27.30
2012,03,12,09,18,17.50
2012,03,12,09,19,18.10
2012,03,12,09,20,23.40
2012,03,12,09,21,20.30
2012,03,12,09,22,18.70
2012,03,12,09,23,21.70
2012,03,12,09,24,25.60
2012,03,12,09,25,17.50
2012,03,12,09,26,19.50
2012,03,12,09,27,15.40
2012,03,12,09,28,9.90
2012,03,12,09,29,15.80
2012,03,12,09,30,13.60
2012,03,12,09,31,12.60
2012,03,12,09,32,20.60
2012,03,12,09,33,22.30
2012,03,12,09,34,13.40
2012,03,12,09,35,19.40
2012,03,12,09,36,24.30
2012,03,12,09,37,26.70
2012,03,12,09,38,26.10
2012,03,12,09,39,13.80
2012,03,12,09,40,10.90
2012,03,12,09,41,12.70
2012,03,12,09,42,13.70
2012,03,12,09,43,12.30
2012,03,12,09,44,12.00
2012,03,12,09,45,17.10
2012,03,12,09,46,15.10
2012,03,12,09,47,15.10
2012,03,12,09,48,15.00
2012,03,12,09,49,17.70
2012,03,12,09,50,19.40
2012,03,12,09,51,21.10
2012,03,12,09,52,15.80
2012,03,12,09,53,13.20
2012,03,12,09,54,11.80
2012,03,12,09,55,20.90
2012,03,12,09,56,21.60
2012,03,12,09,57,15.40
2012,03,12,09,58,22.20
2012,03,12,09,59,28.60
2012,03,12,10,00,15.70
2012,03,12,10,01,35.40
2012,03,12,10,02,25.30
2012,03,12,10,03,24.10
2012,03,12,10,04,29.10
2012,03,12,10,05,22.30
2012,03,12,10,06,22.00
2012,03,12,10,07,18.30
2012,03,12,10,08,20.00
2012,03,12,10,09,28.20
2012,03,12,10,10,21.00
2012,03,12,10,11,25.30
2012,03,12,10,12,17.10
2012,03,12,10,13,15.20
2012,03,12,10,14,20.40
2012,03,12,10,15,14.60
2012,03,12,10,16,17.20
2012,03,12,10,17,14.60
2012,03,12,10,18,13.40
2012,03,12,10,19,13.50
2012,03,12,10,20,16.60
2012,03,12,10,21,13.10
2012,03,12,10,22,17.50
2012,03,12,10,23,13.70
2012,03,12,10,24,12.10
2012,03,12,10,25,13.00
2012,03,12,10,26,16.20
2012,03,12,10,27,8.90
2012,03,12,10,28,20.40
2012,03,12,10,29,19.10
2012,03,12,10,30,15.60
2012,03,12,10,31,9.00
2012,03,12,10,32,8.90
2012,03,12,10,33,19.80
2012,03,12,10,34,20.90
2012,03,12,10,35,15.30
2012,03,12,10,36,17.10
2012,03,12,10,37,11.30
2012,03,12,10,38,11.10
2012,03,12,10,39,13.40
2012,03,12,10,40,18.50
2012,03,12,10,41,16.70
2012,03,12,10,42,16.90
2012,03,12,10,43,19.60
2012,03,12,10,44,12.10
2012,03,12,10,45,9.30
2012,03,12,10,46,10.20
2012,03,12,10,47,15.80
2012,03,12,10,48,21.10
2012,03,12,10,49,18.90
2012,03,12,10,50,10.70
2012,03,12,10,51,12.40
2012,03,12,10,52,13.40
2012,03,12,10,53,15.00
2012,03,12,10,54,13.40
2012,03,12,10,55,7.80
2012,03,12,10,56,10.60
2012,03,12,10,57,13.80
2012,03,12,10,58,11.20
2012,03,12,10,59,9.70
2012,03,12,11,00,7.90
2012,03,12,11,01,12.60
2012,03,12,11,02,12.30
2012,03,12,11,03,6.20
2012,03,12,11,04,9.10
2012,03,12,11,05,13.50
2012,03,12,11,06,11.50
2012,03,12,11,07,8.80
2012,03,12,11,08,10.90
2012,03,12,11,09,17.10
2012,03,12,11,10,12.50
2012,03,12,11,11,9.50
2012,03,12,11,12,11.80
2012,03,12,11,13,15.70
2012,03,12,11,14,11.90
2012,03,12,11,15,9.30
2012,03,12,11,16,7.70
2012,03,12,11,17,10.80
2012,03,12,11,18,6.00
2012,03,12,11,19,5.80
2012,03,12,11,20,6.40
2012,03,12,11,21,6.40
2012,03,12,11,22,9.20
2012,03,12,11,23,6.80
2012,03,12,11,24,6.40
2012,03,12,11,25,8.20
2012,03,12,11,26,11.30
2012,03,12,11,27,7.20
2012,03,12,11,28,12.30
2012,03,12,11,29,8.50
2012,03,12,11,30,4.10
2012,03,12,11,31,15.70
2012,03,12,11,32,11.80
2012,03,12,11,33,9.40
2012,03,12,11,34,9.40
2012,03,12,11,35,8.20
2012,03,12,11,36,9.50
2012,03,12,11,37,9.10
2012,03,12,11,38,8.50
2012,03,12,11,39,15.00
2012,03,12,11,40,14.40
2012,03,12,11,41,12.40
2012,03,12,11,42,8.20
2012,03,12,11,43,9.30
2012,03,12,11,44,19.00
2012,03,12,11,45,8.90
2012,03,12,11,46,11.90
2012,03,12,11,47,10.90
2012,03,12,11,48,14.40
2012,03,12,11,49,5.80
2012,03,12,11,50,11.20
2012,03,12,11,51,7.00
2012,03,12,11,52,7.20
2012,03,12,11,53,11.80
2012,03,12,11,54,10.90
2012,03,12,11,55,10.80
2012,03,12,11,56,7.80
2012,03,12,11,57,5.90
2012,03,12,11,58,8.80
2012,03,12,11,59,11.70
2012,03,12,12,00,12.40
2012,03,12,12,01,6.30
2012,03,12,12,02,5.10
2012,03,12,12,03,8.70
2012,03,12,12,04,4.60
2012,03,12,12,05,6.40
2012,03,12,12,06,6.00
2012,03,12,12,07,8.90
2012,03,12,12,08,8.70
2012,03,12,12,09,8.00
2012,03,12,12,10,1.80
2012,03,12,12,11,4.20
2012,03,12,12,12,3.40
2012,03,12,12,13,3.50
2012,03,12,12,14,4.10
2012,03,12,12,15,4.10
2012,03,12,12,16,6.00
2012,03,12,12,17,4.20
2012,03,12,12,18,3.00
2012,03,12,12,19,1.90
2012,03,12,12,20,5.90
2012,03,12,12,21,5.30
2012,03,12,12,22,2.00
2012,03,12,12,23,0.00
2012,03,12,12,24,1.70
2012,03,12,12,25,2.00
2012,03,12,12,26,0.90
2012,03,12,12,27,4.30
2012,03,12,12,28,2.60
2012,03,12,12,29,2.30
2012,03,12,12,30,2.30
2012,03,12,12,31,1.00
2012,03,12,12,32,3.80
2012,03,12,12,33,4.10
2012,03,12,12,34,4.80
2012,03,12,12,35,12.10
2012,03,12,12,36,17.50
2012,03,12,12,37,7.50
2012,03,12,12,38,3.10
2012,03,12,12,39,3.00
2012,03,12,12,40,3.30
2012,03,12,12,41,0.00
2012,03,12,12,42,0.40
2012,03,12,12,43,3.90
2012,03,12,12,44,0.80
2012,03,12,12,45,2.40
2012,03,12,12,46,3.90
2012,03,12,12,47,2.20
2012,03,12,12,48,7.90
2012,03,12,12,49,5.20
2012,03,12,12,50,2.40
2012,03,12,12,51,3.10
2012,03,12,12,52,2.50
2012,03,12,12,53,8.70
2012,03,12,12,54,9.60
2012,03,12,12,55,11.30
2012,03,12,12,56,7.90
2012,03,12,12,57,7.50
2012,03,12,12,58,9.70
2012,03,12,12,59,10.10
2012,03,12,13,00,5.00
2012,03,12,13,01,4.30
2012,03,12,13,02,4.30
2012,03,12,13,03,3.60
2012,03,12,13,04,5.60
2012,03,12,13,05,6.40
2012,03,12,13,06,2.40
2012,03,12,13,07,3.80
2012,03,12,13,08,8.40
2012,03,12,13,09,3.90
2012,03,12,13,10,3.40
2012,03,12,13,11,2.50
2012,03,12,13,12,3.90
2012,03,12,13,13,4.70
2012,03,12,13,14,5.90
2012,03,12,13,15,2.90
2012,03,12,13,16,3.90
2012,03,12,13,17,6.80
2012,03,12,13,18,6.20
2012,03,12,13,19,3.90
2012,03,12,13,20,4.30
2012,03,12,13,21,7.00
2012,03,12,13,22,2.90
2012,03,12,13,23,6.20
2012,03,12,13,24,10.40
2012,03,12,13,25,8.10
2012,03,12,13,26,7.10
2012,03,12,13,27,8.30
2012,03,12,13,28,10.60
2012,03,12,13,29,15.00
2012,03,12,13,30,5.70
2012,03,12,13,31,6.70
2012,03,12,13,32,6.20
2012,03,12,13,33,13.00
2012,03,12,13,34,5.10
2012,03,12,13,35,6.30
2012,03,12,13,36,7.30
2012,03,12,13,37,3.70
2012,03,12,13,38,1.80
2012,03,12,13,39,0.00
2012,03,12,13,40,0.60
2012,03,12,13,41,0.10
2012,03,12,13,42,0.80
2012,03,12,13,43,0.60
2012,03,12,13,44,0.40
2012,03,12,13,45,0.30
2012,03,12,13,46,0.00
2012,03,12,13,47,0.10
2012,03,12,13,48,0.10
2012,03,12,13,49,0.00
2012,03,12,13,50,0.00
2012,03,12,13,51,0.00
2012,03,12,13,52,0.00
2012,03,12,13,53,1.80
2012,03,12,13,54,0.30
2012,03,12,13,55,0.10
2012,03,12,13,56,0.00
2012,03,12,13,57,1.50
2012,03,12,13,58,0.70
2012,03,12,13,59,2.50
2012,03,12,14,00,0.50
2012,03,12,14,01,0.60
2012,03,12,14,02,1.30
2012,03,12,14,03,0.10
2012,03,12,14,04,0.70
2012,03,12,14,05,1.90
2012,03,12,14,06,0.10
2012,03,12,14,07,0.20
2012,03,12,14,08,0.00
2012,03,12,14,09,0.30
2012,03,12,14,10,0.40
2012,03,12,14,11,1.20
2012,03,12,14,12,0.60
2012,03,12,14,13,3.10
2012,03,12,14,14,2.00
2012,03,12,14,15,0.10
2012,03,12,14,16,2.10
2012,03,12,14,17,2.40
2012,03,12,14,18,0.70
2012,03,12,14,19,1.30
2012,03,12,14,20,0.50
2012,03,12,14,21,3.50
2012,03,12,14,22,1.00
2012,03,12,14,23,2.20
2012,03,12,14,24,0.30
2012,03,12,14,25,1.30
2012,03,12,14,26,1.90
2012,03,12,14,27,5.80
2012,03,12,14,28,19.20
2012,03,12,14,29,9.40
2012,03,12,14,30,4.90
2012,03,12,14,31,2.80
2012,03,12,14,32,6.80
2012,03,12,14,33,7.70
2012,03,12,14,34,6.80
2012,03,12,14,35,4.60
2012,03,12,14,36,4.90
2012,03,12,14,37,6.40
2012,03,12,14,38,3.70
2012,03,12,14,39,4.70
2012,03,12,14,40,0.20
2012,03,12,14,41,1.50
2012,03,12,14,42,1.30
2012,03,12,14,43,0.80
2012,03,12,14,44,0.00
2012,03,12,14,45,0.00
2012,03,12,14,46,0.20
2012,03,12,14,47,1.10
2012,03,12,14,48,0.10
2012,03,12,14,49,0.10
2012,03,12,14,50,0.50
2012,03,12,14,51,0.40
2012,03,12,14,52,0.00
2012,03,12,14,53,0.20
2012,03,12,14,54,0.10
2012,03,12,14,55,0.00
2012,03,12,14,56,0.00
2012,03,12,14,57,0.60
2012,03,12,14,58,0.00
2012,03,12,14,59,0.00
2012,03,12,15,00,0.00
2012,03,12,15,01,0.00
2012,03,12,15,02,0.10
2012,03,12,15,03,0.20
2012,03,12,15,04,0.40
2012,03,12,15,05,1.30
2012,03,12,15,06,0.00
2012,03,12,15,07,0.10
2012,03,12,15,08,1.40
2012,03,12,15,09,1.00
2012,03,12,15,10,1.90
2012,03,12,15,11,0.20
2012,03,12,15,12,0.10
2012,03,12,15,13,3.10
2012,03,12,15,14,0.00
2012,03,12,15,15,0.30
2012,03,12,15,16,0.20
2012,03,12,15,17,1.80
2012,03,12,15,18,1.40
2012,03,12,15,19,0.20
2012,03,12,15,20,0.10
2012,03,12,15,21,1.80
2012,03,12,15,22,0.60
2012,03,12,15,23,0.70
2012,03,12,15,24,2.70
2012,03,12,15,25,1.40
2012,03,12,15,26,0.00
2012,03,12,15,27,0.80
2012,03,12,15,28,0.40
2012,03,12,15,29,0.30
2012,03,12,15,30,0.80
2012,03,12,15,31,0.30
2012,03,12,15,32,1.50
2012,03,12,15,33,0.30
2012,03,12,15,34,0.00
2012,03,12,15,35,0.10
2012,03,12,15,36,0.70
2012,03,12,15,37,0.60
2012,03,12,15,38,1.10
2012,03,12,15,39,1.20
2012,03,12,15,40,1.30
2012,03,12,15,41,1.80
2012,03,12,15,42,0.50
2012,03,12,15,43,0.10
2012,03,12,15,44,0.00
2012,03,12,15,45,1.00
2012,03,12,15,46,0.40
2012,03,12,15,47,0.60
2012,03,12,15,48,0.00
2012,03,12,15,49,0.10
2012,03,12,15,50,0.00
2012,03,12,15,51,0.80
2012,03,12,15,52,0.20
2012,03,12,15,53,0.30
2012,03,12,15,54,1.10
2012,03,12,15,55,2.30
2012,03,12,15,56,0.80
2012,03,12,15,57,1.90
2012,03,12,15,58,0.00
2012,03,12,15,59,0.80
2012,03,12,16,00,0.20
2012,03,12,16,01,0.60
2012,03,12,16,02,2.30
2012,03,12,16,03,0.10
2012,03,12,16,04,0.10
2012,03,12,16,05,1.40
2012,03,12,16,06,0.40
2012,03,12,16,07,0.00
2012,03,12,16,08,0.00
2012,03,12,16,09,0.00
2012,03,12,16,10,0.10
2012,03,12,16,11,0.00
2012,03,12,16,12,0.60
2012,03,12,16,13,0.40
2012,03,12,16,14,0.40
2012,03,12,16,15,0.30
2012,03,12,16,16,2.80
2012,03,12,16,17,0.00
2012,03,12,16,18,0.20
2012,03,12,16,19,0.30
2012,03,12,16,20,0.00
2012,03,12,16,21,2.00
2012,03,12,16,22,0.70
2012,03,12,16,23,0.20
2012,03,12,16,24,0.00
2012,03,12,16,25,0.70
2012,03,12,16,26,1.90
2012,03,12,16,27,0.60
2012,03,12,16,28,0.00
2012,03,12,16,29,0.10
2012,03,12,16,30,1.50
2012,03,12,16,31,0.60
2012,03,12,16,32,0.20
2012,03,12,16,33,0.80
2012,03,12,16,34,0.10
2012,03,12,16,35,0.80
2012,03,12,16,36,3.40
2012,03,12,16,37,3.90
2012,03,12,16,38,0.90
2012,03,12,16,39,1.10
2012,03,12,16,40,2.00
2012,03,12,16,41,0.30
2012,03,12,16,42,0.20
2012,03,12,16,43,1.90
2012,03,12,16,44,0.10
2012,03,12,16,45,0.90
2012,03,12,16,46,0.50
2012,03,12,16,47,0.00
2012,03,12,16,48,1.40
2012,03,12,16,49,1.20
2012,03,12,16,50,1.90
2012,03,12,16,51,1.00
2012,03,12,16,52,0.20
2012,03,12,16,53,0.20
2012,03,12,16,54,0.60
2012,03,12,16,55,0.00
2012,03,12,16,56,1.00
2012,03,12,16,57,2.90
2012,03,12,16,58,2.60
2012,03,12,16,59,0.10
2012,03,12,17,00,0.00
2012,03,12,17,01,0.00
2012,03,12,17,02,0.00
2012,03,12,17,03,0.00
2012,03,12,17,04,0.00
2012,03,12,17,05,1.50
2012,03,12,17,06,2.90
2012,03,12,17,07,2.10
2012,03,12,17,08,0.20
2012,03,12,17,09,1.00
2012,03,12,17,10,0.20
2012,03,12,17,11,0.70
2012,03,12,17,12,0.00
2012,03,12,17,13,2.00
2012,03,12,17,14,0.60
2012,03,12,17,15,2.20
2012,03,12,17,16,2.90
2012,03,12,17,17,2.10
2012,03,12,17,18,1.60
2012,03,12,17,19,0.10
2012,03,12,17,20,0.20
2012,03,12,17,21,2.30
2012,03,12,17,22,0.90
2012,03,12,17,23,0.80
2012,03,12,17,24,1.20
2012,03,12,17,25,0.10
2012,03,12,17,26,0.00
2012,03,12,17,27,0.70
2012,03,12,17,28,0.20
2012,03,12,17,29,0.10
2012,03,12,17,30,1.90
2012,03,12,17,31,0.10
2012,03,12,17,32,0.00
2012,03,12,17,33,1.80
2012,03,12,17,34,3.20
2012,03,12,17,35,4.70
2012,03,12,17,36,3.50
2012,03,12,17,37,0.20
2012,03,12,17,38,1.60
2012,03,12,17,39,2.40
2012,03,12,17,40,0.30
2012,03,12,17,41,1.40
2012,03,12,17,42,0.20
2012,03,12,17,43,0.20
2012,03,12,17,44,1.10
2012,03,12,17,45,0.20
2012,03,12,17,46,2.20
2012,03,12,17,47,0.20
2012,03,12,17,48,3.50
2012,03,12,17,49,1.90
2012,03,12,17,50,0.00
2012,03,12,17,51,1.30
2012,03,12,17,52,3.20
2012,03,12,17,53,1.40
2012,03,12,17,54,0.10
2012,03,12,17,55,0.90
2012,03,12,17,56,0.20
2012,03,12,17,57,2.40
2012,03,12,17,58,0.80
2012,03,12,17,59,0.70
2012,03,12,18,00,1.30
2012,03,12,18,01,3.80
2012,03,12,18,02,1.70
2012,03,12,18,03,1.00
2012,03,12,18,04,1.20
2012,03,12,18,05,0.00
2012,03,12,18,06,0.10
2012,03,12,18,07,2.80
2012,03,12,18,08,3.40
2012,03,12,18,09,0.40
2012,03,12,18,10,0.80
2012,03,12,18,11,0.10
2012,03,12,18,12,0.80
2012,03,12,18,13,3.50
2012,03,12,18,14,1.80
2012,03,12,18,15,1.30
2012,03,12,18,16,1.30
2012,03,12,18,17,1.10
2012,03,12,18,18,0.00
2012,03,12,18,19,2.00
2012,03,12,18,20,1.40
2012,03,12,18,21,0.10
2012,03,12,18,22,2.50
2012,03,12,18,23,1.00
2012,03,12,18,24,1.60
2012,03,12,18,25,1.40
2012,03,12,18,26,3.10
2012,03,12,18,27,1.30
2012,03,12,18,28,2.40
2012,03,12,18,29,2.20
2012,03,12,18,30,5.80
2012,03,12,18,31,6.00
2012,03,12,18,32,5.20
2012,03,12,18,33,4.30
2012,03,12,18,34,7.20
2012,03,12,18,35,6.20
2012,03,12,18,36,6.80
2012,03,12,18,37,7.20
2012,03,12,18,38,6.80
2012,03,12,18,39,6.40
2012,03,12,18,40,6.10
2012,03,12,18,41,10.20
2012,03,12,18,42,3.10
2012,03,12,18,43,4.70
2012,03,12,18,44,1.80
2012,03,12,18,45,1.40
2012,03,12,18,46,2.60
2012,03,12,18,47,2.50
2012,03,12,18,48,3.00
2012,03,12,18,49,4.30
2012,03,12,18,50,4.00
2012,03,12,18,51,1.80
2012,03,12,18,52,1.70
2012,03,12,18,53,4.20
2012,03,12,18,54,5.60
2012,03,12,18,55,2.50
2012,03,12,18,56,1.00
2012,03,12,18,57,1.90
2012,03,12,18,58,2.60
2012,03,12,18,59,0.60
2012,03,12,19,00,3.00
2012,03,12,19,01,3.30
2012,03,12,19,02,1.70
2012,03,12,19,03,2.60
2012,03,12,19,04,3.60
2012,03,12,19,05,3.50
2012,03,12,19,06,2.20
2012,03,12,19,07,2.80
2012,03,12,19,08,6.80
2012,03,12,19,09,5.50
2012,03,12,19,10,7.40
2012,03,12,19,11,6.90
2012,03,12,19,12,7.50
2012,03,12,19,13,8.40
2012,03,12,19,14,7.70
2012,03,12,19,15,9.50
2012,03,12,19,16,7.10
2012,03,12,19,17,11.10
2012,03,12,19,18,6.60
2012,03,12,19,19,10.50
2012,03,12,19,20,13.40
2012,03,12,19,21,10.90
2012,03,12,19,22,5.80
2012,03,12,19,23,7.90
2012,03,12,19,24,8.90
2012,03,12,19,25,4.70
2012,03,12,19,26,2.70
2012,03,12,19,27,2.10
2012,03,12,19,28,4.60
2012,03,12,19,29,1.90
2012,03,12,19,30,0.60
2012,03,12,19,31,1.90
2012,03,12,19,32,0.80
2012,03,12,19,33,0.20
2012,03,12,19,34,1.40
2012,03,12,19,35,0.00
2012,03,12,19,36,0.00
2012,03,12,19,37,0.00
2012,03,12,19,38,0.30
2012,03,12,19,39,0.40
2012,03,12,19,40,0.60
2012,03,12,19,41,0.00
2012,03,12,19,42,2.60
2012,03,12,19,43,2.60
2012,03,12,19,44,0.10
2012,03,12,19,45,0.00
2012,03,12,19,46,0.00
2012,03,12,19,47,0.00
2012,03,12,19,48,0.00